www.pogodaiklimat.ru
ПОГОДА в Дилене

Архив погоды в Дилене (Нидерланды)

Время
(UTC), дата
19 19.05
20 19.05
21 19.05
22 19.05
23 19.05
00 20.05
01 20.05
02 20.05
03 20.05
04 20.05
05 20.05
06 20.05
07 20.05
08 20.05
09 20.05
10 20.05
11 20.05
12 20.05
13 20.05
14 20.05
15 20.05
16 20.05
17 20.05
18 20.05
19 20.05
20 20.05
21 20.05
22 20.05
23 20.05
00 21.05
01 21.05
02 21.05
03 21.05
04 21.05
05 21.05
06 21.05
07 21.05
08 21.05
09 21.05
10 21.05
11 21.05
12 21.05
13 21.05
14 21.05
15 21.05
16 21.05
17 21.05
18 21.05
19 21.05
20 21.05
21 21.05
22 21.05
23 21.05
00 22.05
01 22.05
02 22.05
03 22.05
04 22.05
05 22.05
06 22.05
07 22.05
08 22.05
09 22.05
10 22.05
11 22.05
12 22.05
13 22.05
14 22.05
15 22.05
16 22.05
17 22.05
18 22.05
19 22.05
20 22.05
21 22.05
22 22.05
23 22.05
00 23.05
01 23.05
02 23.05
03 23.05
04 23.05
05 23.05
06 23.05
07 23.05
08 23.05
09 23.05
10 23.05
11 23.05
12 23.05
13 23.05
14 23.05
15 23.05
16 23.05
17 23.05
18 23.05
19 23.05
20 23.05
21 23.05
22 23.05
23 23.05
00 24.05
01 24.05
02 24.05
03 24.05
04 24.05
05 24.05
06 24.05
07 24.05
08 24.05
09 24.05
10 24.05
11 24.05
12 24.05
13 24.05
14 24.05
15 24.05
16 24.05
17 24.05
18 24.05
19 24.05
20 24.05
21 24.05
22 24.05
23 24.05
00 25.05
01 25.05
02 25.05
03 25.05
04 25.05
05 25.05
06 25.05
07 25.05
08 25.05
09 25.05
10 25.05
11 25.05
12 25.05
13 25.05
14 25.05
15 25.05
16 25.05
17 25.05
18 25.05
19 25.05
20 25.05
21 25.05
22 25.05
23 25.05
00 26.05
01 26.05
02 26.05
03 26.05
04 26.05
05 26.05
06 26.05
07 26.05
08 26.05
09 26.05
10 26.05
11 26.05
12 26.05
13 26.05
14 26.05
15 26.05
16 26.05
17 26.05
18 26.05
Ветер
(напр.,м/с)
Видим. Явления Облачность Т
(С)
Тd
(С)
f
(%)
Тe
(С)
Тes
(С)
Комфортность P
(гПа)
Po
(гПа)
Тmin
(С)
Tmax
(С)
R
(мм)
R24
(мм)
S
(см)
З 2-2 {3} 45 км 10/10 +15.1 +13.1 88 +15 +15 1011.1 1005.5
Ю 1-1 {4} 4300 м дымка 4/4 +12.9 +12.3 96 +13 +13 1011.6 1006.0
С 1-1 {4} 200 м туман 6 баллов +11.4 +11.2 99 +11 +11 1011.7 1006.1
С 3-3 {3} 200 м туман 1/1 +12.0 +10.8 92 +10 +10 1011.4 1006.0
С 3-4 {4} 4100 м в посл. час туман 10/10 +12.1 +10.7 91 +10 +10 1011.2 1005.7
С 2-3 {4} 7000 м слаб. ливневой дождь 10 баллов +12.8 +11.4 91 +12 +12 1011.6 1006.1
СЗ 1-2 {4} 5000 м в посл. час дождь 10/10 2000 м +12.4 +11.7 95 +12 +12 1011.7 1006.1
ЮЗ 1-1 {3} 2100 м в посл. час дождь 10/10 1500 м +12.1 +11.8 98 +12 +12 1011.2 1005.7
С 1-2 {4} 200 м туман 10 баллов +11.4 +11.2 99 +11 +11 1011.5 1006.0
З 1-1 {1} 300 м туман 10/10 +11.0 +10.9 99 +11 +11 1011.5 1005.9
штиль 0-1 {2} 2000 м в посл. час туман 10/10 1500 м +11.8 +11.7 99 +11 +11 1011.6 1006.0
СЗ 1-2 {4} 2700 м дымка 10 баллов +12.7 +12.1 96 +13 +13 1011.7 1006.1 +10.9 20.8
С 3-5 {5} 6000 м дымка 10/10 +14.1 +12.9 92 +13 +13 1011.6 1005.9
С 2-4 {4} 17 км 10/8 300 м +15.8 +13.0 83 +16 +17 1011.8 1006.3
С 2-3 {5} 21 км 10/10 300 м +16.8 +12.5 76 +17 +17 1012.0 1006.4
В 1-2 {3} 23 км 10/10 600 м +16.8 +12.6 76 +18 +18 1012.1 1006.5
В 2-3 {3} 20 км 10/10 600 м +17.6 +12.9 74 +18 +18 1012.0 1006.4
СВ 2-4 {5} 30 км 6 баллов +18.9 +13.5 71 +20 +27 1011.6 1006.0
В 3-4 {5} 35 км 6/6 600 м +19.7 +13.0 65 +22 +27 комфорт 1011.0 1005.5
СВ 2-5 {5} 40 км 5/5 1000 м +20.6 +12.2 59 +23 +30 комфорт 1010.5 1005.0
Ю 2-3 {5} 45 км 9/9 1000 м +21.4 +12.7 58 +24 +25 комфорт 1010.2 1004.8
ЮВ 3-5 {6} 45 км 10/10 +19.9 +11.6 59 +22 +22 комфорт 1010.1 1004.5
ЮВ 2-3 {4} 45 км 10/10 +19.2 +13.0 67 +21 +21 комфорт 1010.1 1004.5
В 1-1 {6} 45 км 10 баллов +18.8 +13.8 73 +21 +21 комфорт 1010.3 1004.7 +21.4
В 1-1 {1} 30 км ясно +16.9 +14.1 84 +18 +18 1010.4 1004.8
СВ 1-2 {2} 17 км ясно +14.1 +12.9 92 +14 +14 1010.6 1005.0
штиль 0-1 {2} 45 км ясно +13.4 +12.5 94 +13 +13 1010.5 1004.9
штиль 0-1 {1} 13 км ясно +12.1 +11.3 95 +11 +11 1010.6 1005.1
В 1-1 {1} 27 км ясно +12.1 +11.6 97 +12 +12 1010.4 1004.8
СВ 2-4 {4} 19 км 9 баллов +12.6 +11.9 95 +12 +12 1010.3 1004.7
В 1-2 {4} 26 км 3/3 +12.4 +11.6 95 +12 +12 1009.9 1004.5
СВ 1-1 {1} 30 км 4/4 +11.8 +11.0 95 +12 +12 1009.5 1004.0
СВ 3-4 {4} 18 км ясно +12.2 +11.5 95 +10 +10 1009.1 1003.6
В 2-3 {4} 12 км 5/5 +12.4 +11.6 95 +11 +11 1009.0 1003.5
В 4-5 {5} 16 км 10/10 +13.7 +12.5 92 +12 +12 1008.9 1003.4
В 3-4 {5} 35 км ясно +16.5 +13.5 82 +16 +18 1008.8 1003.3 +11.6 0.0
В 3-6 {6} 40 км 3/3 +18.4 +13.9 75 +19 +22 1008.8 1003.3
СВ 3-5 {6} 40 км 10/10 +20.3 +14.8 71 +23 +23 комфорт 1008.6 1003.1
В 4-7 {8} 45 км 9 баллов +21.0 +13.8 63 +24 +25 комфорт 1008.4 1002.9
В 5-8 {8} 40 км 10/10 +22.0 +15.0 64 +25 +25 комфорт 1008.0 1002.6
СВ 5-8 {9} 45 км 10/10 +23.0 +14.9 60 +27 +27 душно 1007.8 1002.3
В 5-8 {10} 45 км 10 баллов +23.4 +13.2 53 +27 +27 душно 1007.1 1001.6
В 4-7 {8} 45 км 10/10 +23.8 +13.9 54 +26 +26 жарко 1006.7 1001.2
В 4-7 {8} 45 км 10/10 +23.7 +13.7 53 +26 +26 жарко 1006.3 1000.8
ЮВ 6-13 {13} 45 км зарница 10 баллов +19.4 +12.9 66 +20 +21 1006.5 1000.7
ЮЗ 3-5 {12} 45 км в посл. час дождь 10/10 +16.7 +13.7 82 +16 +16 1005.7 1000.3 0.1
СЗ 3-4 {4} 45 км 10/10 +17.9 +13.3 74 +18 +18 1005.2 999.8
СЗ 3-7 {13} 45 км гроза без осадков 10 баллов +17.7 +13.7 77 +18 +18 1006.3 999.9 +24.1
ЮЗ 4-9 {10} 21 км морось с дождем 10/8 1000 м +15.0 +14.4 96 +14 +14 1006.5 1001.1 4
СЗ 2-2 {6} 3300 м дождь 10/10 2000 м +14.8 +14.5 98 +14 +14 1006.9 1001.4 4
СЗ 4-5 {10} 3700 м дождь 10 баллов +14.6 +14.2 97 +13 +13 1006.0 1000.7 2
СЗ 4-6 {6} 7000 м морось с дождем 10/10 1000 м +14.1 +13.5 96 +13 +13 1004.8 999.4 1
З 3-4 {8} 2900 м сильн. дождь 10/9 600 м +13.8 +13.6 99 +13 +13 1004.6 999.1 7
СЗ 3-5 {10} 4400 м сильн. дождь 10 баллов +13.8 +13.4 97 +13 +13 1004.7 999.3 8
З 4-5 {5} 6000 м дождь 10/10 1000 м +13.8 +13.5 98 +12 +12 1004.0 998.5 2
З 3-4 {5} 9000 м в посл. час дождь 10/8 200 м +13.7 +13.3 97 +12 +12 1003.9 998.4 0.2
ЮЗ 4-7 {7} 5000 м дымка 10 баллов +13.7 +13.3 97 +12 +12 1004.0 998.5
ЮЗ 3-5 {6} 10 км 10/8 200 м +13.5 +13.0 97 +12 +12 1004.4 998.8
ЮЗ 3-4 {5} 4000 м дымка 10/6 200 м +14.1 +13.6 97 +13 +13 1004.7 999.2
ЮЗ 4-6 {7} 3200 м в посл. час дождь 10 баллов +14.4 +13.6 95 +13 +13 1005.5 999.9 +13.4 27.4
ЮЗ 5-7 {9} 3900 м слаб. морось 10/6 300 м +14.2 +13.3 94 +12 +13 1006.4 1000.7 0.2
Ю 5-7 {8} 7000 м в посл. час морось н/о +15.2 +13.3 88 +14 +14 1006.8 1001.3
ЮЗ 6-10 {10} 11 км н/о +15.1 +12.1 82 +13 +13 1007.5 1001.9
ЮЗ 5-9 {9} 17 км слаб. ливневой дождь н/о +14.9 +12.3 84 +13 +13 1008.0 1002.4
ЮЗ 5-8 {9} 28 км в посл. час дождь н/о +16.1 +12.5 79 +15 +15 1008.6 1003.0
Ю 6-9 {10} 30 км н/о +16.1 +11.9 76 +15 +15 1009.0 1003.3
ЮЗ 4-6 {8} 35 км н/о +18.0 +12.5 70 +18 +18 1009.2 1003.7
ЮЗ 4-8 {9} 40 км н/о +17.5 +11.9 70 +17 +17 1009.7 1004.0
ЮЗ 5-8 {9} 45 км н/о +18.2 +11.7 66 +18 +18 1009.6 1004.1
ЮЗ 5-7 {7} 45 км н/о +18.7 +11.5 63 +19 +19 1009.4 1003.9
Ю 4-6 {8} 45 км н/о +18.2 +11.6 65 +18 +18 1009.4 1003.9
Ю 3-4 {9} 45 км н/о +18.2 +12.5 69 +19 +19 1009.7 1004.1 +19.2
ЮЗ 2-3 {6} 45 км н/о +16.2 +11.9 76 +16 +16 1010.5 1004.8
ЮЗ 1-1 {3} 40 км н/о +14.2 +12.0 87 +15 +15 1011.2 1005.6
Ю 1-2 {6} 13 км н/о +12.7 +11.3 91 +13 +13 1011.7 1006.0
Ю 1-1 {2} 17 км н/о +13.9 +12.0 88 +14 +14 1011.9 1006.3
Ю 2-3 {4} 14 км н/о +12.6 +10.9 89 +12 +12 1012.1 1006.6
Ю 3-4 {6} 14 км н/о +12.3 +10.5 89 +11 +11 1012.2 1006.6
Ю 3-4 {4} 18 км н/о +12.1 +10.0 87 +10 +10 1012.3 1006.6
Ю 2-3 {4} 14 км н/о +11.4 +9.7 89 +10 +10 1012.3 1006.7
Ю 3-4 {4} 11 км н/о +10.9 +9.6 92 +9 +9 1012.5 1006.8
ЮЗ 3-4 {4} 7000 м дымка н/о +11.3 +10.2 93 +9 +9 1012.8 1007.2
ЮЗ 4-5 {6} 10 км н/о +12.3 +10.8 91 +10 +10 1013.3 1007.7
Ю 3-5 {6} 12 км н/о +13.1 +11.1 88 +12 +12 1013.6 1008.0 +10.6 0.2
ЮЗ 4-6 {6} 19 км н/о +14.1 +11.4 84 +13 +13 1013.9 1008.2
ЮЗ 5-8 {8} 30 км н/о +15.0 +11.6 80 +14 +14 1014.2 1008.5
ЮЗ 6-7 {8} 40 км н/о +16.2 +12.0 76 +15 +15 1014.4 1008.8
ЮЗ 6-7 {8} 35 км н/о +16.2 +11.4 73 +15 +15 1014.7 1009.0
ЮЗ 6-9 {9} 45 км н/о +16.9 +11.5 70 +16 +16 1015.0 1009.4
ЮЗ 5-7 {9} 40 км н/о +18.1 +11.9 67 +18 +18 1014.9 1009.3
Ю 5 45 км 9/9 1000 м +18.6 +11.2 62 +19 +20 1014.6 1009.0
ЮЗ 5-8 {9} 45 км 8/8 1500 м +19.6 +11.3 59 +21 +22 комфорт 1014.7 1009.0
ЮЗ 5 45 км 9/9 1000 м +19.7 +10.6 56 +21 +21 комфорт 1014.9 1009.2
З 6-8 {9} 45 км 9/8 1500 м +18.8 +9.2 54 +19 +19 1015.3 1009.6
З 2-3 {7} 45 км 9/9 +18.0 +11.0 64 +19 +19 1015.5 1009.9
ЮЗ 2-3 {10} 45 км 6 баллов +18.0 +11.7 67 +19 +19 1015.7 1010.0 +20.6
З 1-1 {3} 45 км 5/5 +16.5 +11.5 72 +17 +17 1015.9 1010.3
штиль 0-1 {1} 19 км 6/6 +13.3 +11.7 90 +13 +13 1016.8 1011.2
В 1-2 {3} 7000 м дымка 3 балла +11.7 +10.9 95 +11 +11 1017.2 1011.6
В 2-2 {2} 7000 м дымка 1/1 2000 м +11.0 +10.3 95 +10 +10 1017.4 1011.8
В 1-2 {2} 6000 м дымка 9/9 +10.9 +10.2 95 +10 +10 1017.6 1012.0
штиль 0-1 {3} 9000 м дымка 10 баллов +10.2 +9.9 98 +9 +9 1017.6 1012.0
В 2-3 {3} 3000 м дымка 9/9 +9.4 +8.8 96 +8 +8 1017.7 1012.1
СВ 1-1 {2} 1800 м дымка 4/4 +8.9 +8.7 99 +8 +8 1017.7 1012.1
В 1-1 {3} 5000 м дымка 10 баллов +8.8 +8.1 95 +8 +8 1017.7 1012.2
ЮВ 1-2 {3} 4200 м дымка 10/10 +8.9 +8.2 95 +8 +8 1017.9 1012.3
штиль 0-1 {2} 6000 м дымка 10/10 +10.0 +9.5 97 +9 +9 1018.3 1012.7
штиль 0-1 {3} 4600 м дымка 10 баллов +12.7 +12.1 96 +12 +12 1018.5 1013.1 +8.2
В 1-2 {2} 11 км 10/10 1500 м +14.8 +12.4 86 +15 +15 1018.7 1013.1
СВ 1-2 {3} 22 км 10/10 +15.9 +12.9 82 +17 +17 1018.8 1013.2
СВ 2-2 {3} 26 км слаб. морось с дождем 10 баллов +17.4 +13.4 77 +18 +18 1019.0 1013.4
ЮВ 2-3 {3} 15 км слаб. дождь 10/10 2000 м +16.7 +13.6 82 +17 +17 1019.5 1013.8
Ю 2-3 {6} 9000 м слаб. дождь 10/10 1500 м +16.3 +14.2 87 +16 +16 1019.4 1013.8 0.2
штиль 0-1 {6} 6000 м дождь 10 баллов +16.3 +14.2 87 +16 +16 1019.4 1013.8 0.4
СЗ 3-4 {4} 6000 м слаб. морось 10/10 2000 м +16.3 +14.7 90 +16 +16 1018.5 1012.8 0.3
С 3-4 {5} 6000 м слаб. морось с дождем 10/10 +16.5 +15.1 91 +16 +16 1018.3 1012.6 0.1
С 4-5 {6} 9000 м в посл. час дождь 10 баллов +16.4 +14.9 91 +16 +16 1018.1 1012.4
СЗ 3-5 {5} 10 км морось с дождем 10/10 1500 м +16.3 +14.8 91 +16 +16 1018.0 1012.3
СЗ 3-5 {5} 5000 м морось с дождем 10/10 1500 м +15.8 +15.0 95 +15 +15 1017.8 1012.1 0.5
С 2-3 {6} 6000 м дождь 10 баллов +14.3 +13.5 95 +14 +14 1018.4 1012.9 +17.4 4
З 2-2 {2} 4500 м слаб. морось 10/10 2000 м +14.3 +13.7 96 +14 +14 1017.4 1011.9 0.6
СЗ 2-2 {2} 2200 м в посл. час морось 10/10 2000 м +14.2 +13.9 98 +14 +14 1017.5 1011.9
С 2-4 {4} 4300 м слаб. ливневой дождь 10 баллов +13.9 +13.6 98 +13 +13 1017.5 1011.9
СВ 3-4 {4} 4600 м слаб. дождь 10/10 +14.1 +13.6 97 +13 +13 1017.4 1011.8 0.3
СВ 3-4 {5} 3500 м слаб. дождь 10/10 1500 м +14.1 +13.6 97 +13 +13 1017.3 1011.8 0.4
СВ 2-3 {5} 4400 м слаб. дождь 9 баллов +13.9 +13.4 97 +13 +13 1017.1 1011.5 0.8
СВ 2-3 {3} 3900 м морось с дождем 10/10 1500 м +13.6 +13.4 99 +13 +13 1016.7 1011.2 0.4
СВ 1-2 {3} 3500 м слаб. морось 10/9 1000 м +13.6 +13.2 97 +14 +14 1016.3 1010.8 0.2
СВ 2-3 {3} 3500 м морось 10 баллов +13.8 +13.6 99 +13 +13 1016.0 1010.4 0.1
СВ 2-2 {3} 3400 м в посл. час дождь 10/9 600 м +13.7 +13.5 99 +13 +13 1015.7 1010.1 0.1
СВ 2-3 {3} 3900 м дымка 10/10 300 м +14.1 +13.6 97 +13 +13 1015.5 1009.9
В 2-3 {4} 4800 м дымка 10 баллов +14.6 +13.8 95 +14 +14 1015.5 1009.9 +13.5 8.4
ЮВ 3-4 {4} 8000 м дымка 10/8 300 м +15.5 +13.1 86 +15 +15 1015.6 1010.0
ЮВ 2-3 {4} 16 км 10/10 600 м +16.1 +13.6 85 +16 +16 1015.7 1010.0
ЮВ 3-4 {4} 35 км 9/9 300 м +16.6 +12.8 78 +16 +19 1015.8 1010.2
ЮВ 2-5 {5} 25 км 9/6 600 м +17.1 +13.3 78 +17 +21 1015.9 1010.4
ЮВ 4-5 {5} 35 км 8/8 1500 м +17.8 +12.9 73 +18 +20 1016.0 1010.4
Ю 4-6 {7} 13 км слаб. ливневой дождь 10 баллов +16.0 +13.4 85 +15 +17 1016.1 1010.5
Ю 5-6 {6} 35 км в посл. час дождь 10/6 1000 м +18.3 +13.3 73 +18 +20 1016.0 1010.4
Ю 5-7 {8} 45 км 10/8 600 м +18.0 +13.2 74 +18 +18 1016.2 1010.6
ЮЗ 3-6 {8} 45 км в посл. час дождь 10 баллов +17.2 +13.5 79 +17 +18 1016.4 1010.9
Ю 4-6 {6} 45 км 10/8 1000 м +16.7 +12.7 77 +16 +17 1016.5 1010.9
Ю 2-3 {5} 40 км 9/6 600 м +16.7 +13.7 82 +17 +18 1016.7 1011.1
ЮЗ 2-2 {8} 30 км слаб. морось 9 баллов +16.4 +14.5 89 +16 +17 1017.0 1011.4 +19.4
ЮЗ 2-3 {5} 45 км в посл. час морось 5/5 2000 м +16.4 +13.3 82 +17 +17 1017.1 1011.5
ЮЗ 2-2 {3} 10 км ясно +14.0 +12.4 90 +13 +13 1017.4 1011.7
В 2-2 {5} 3000 м дымка ясно +11.5 +10.8 95 +10 +10 1017.5 1011.8
ЮВ 2-2 {3} 4500 м дымка ясно +10.5 +9.8 95 +9 +9 1017.6 1012.0
В 2-2 {3} 2400 м дымка ясно +11.8 +11.6 99 +11 +11 1017.9 1012.3
В 1-2 {5} 600 м туман ясно +10.3 +9.9 97 +10 +10 1017.7 1012.1
В 2-2 {2} 2400 м в посл. час туман 10/10 +11.7 +11.3 97 +10 +10 1017.3 1011.7
ЮВ 1-1 {3} 500 м туман 9/9 +10.6 +10.1 97 +10 +10 1017.0 1011.4
В 2-2 {3} 3600 м в посл. час туман 10 баллов +11.5 +11.0 97 +10 +10 1016.7 1011.2
ЮВ 1-2 {2} 6000 м дымка 10/10 +12.1 +11.4 95 +12 +12 1016.2 1010.7
ЮВ 2-2 {3} 5000 м дымка 10/10 +13.1 +12.1 94 +12 +12 1016.5 1011.0
ЮВ 3-5 {5} 10 км 9 баллов +15.3 +13.2 87 +15 +15 1016.5 1010.9 +9.5 0.0
ЮВ 5-7 {7} 28 км 10/10 +16.8 +12.2 74 +16 +16 1016.0 1010.4
ЮВ 4-7 {7} 35 км 10/10 +18.2 +12.4 69 +18 +18 1015.8 1010.2
ЮВ 4-6 {7} 35 км 10/0 +19.6 +12.9 65 +21 +21 комфорт 1015.6 1010.0
ЮВ 5-7 {7} 45 км 10/10 +20.7 +12.2 58 +23 +23 комфорт 1015.1 1009.6
ЮВ 5-8 {8} 45 км 10/10 +20.8 +12.5 59 +23 +23 комфорт 1015.1 1009.4
ЮВ 4-7 {9} 45 км 10 баллов +21.1 +13.8 63 +24 +24 комфорт 1014.5 1008.9
ЮВ 4-6 {8} 45 км зарница 10/10 +21.3 +12.8 58 +24 +24 комфорт 1014.0 1008.4
ЮВ 3-5 {7} 45 км 10/10 +21.5 +13.2 59 +24 +24 комфорт 1013.4 1007.9
ЮВ 3-5 {8} 45 км зарница 10 баллов +21.2 +13.3 61 +24 +24 комфорт 1012.9 1007.3
СЗ 1-2 {5} 23 км слаб. ливневой дождь 10/9 1500 м +19.4 +15.8 80 +22 +23 комфорт 1012.4 1006.7 0.3
Ю 4-9 {9} 45 км в посл. час дождь 10/10 +16.5 +13.9 85 +16 +16 1013.8 1007.7 0.3
Ю 1-2 {13} 40 км слаб. морось 10 баллов +14.3 +13.6 96 +15 +15 1013.9 1008.4 +22.3 2
Местоположение метеостанции Дилен (Нидерланды): широта 52.07 долгота 5.88 высота над уровнем моря 47 м.
В архиве по умолчанию представлена погода в Дилене за последнюю неделю. Архивные данные за месяц целиком и за предыдущие месяцы, начиная с января 2011 года, Вы можете получить, выбрав интересующий диапазон дат из раскрывающегося списка и нажав кнопку "Найти!".
*Определитесь, кто Вы:
Внимание! Время в таблицах - всемирное. Для получения местного времени необходимо прибавить поправку, которая равна 1 ч.
Некоторые строки с данными для отдельных станций могут быть выделены курсивом. Это означает, что фактические данные отсутствуют по различным причинам, а приведенные значения являются расчетными модельными данными для данного пункта наблюдений.
Смотрите также архив погоды в соседних городах и на ближайших метеорологических станциях:
Партнеры нашего сайта:      
Пояснения к столбцам:
  • Ветер - указаны скорость ветра в м/с - средняя за 10 мин, порывы в срок и между сроками (в фигурных скобках) и направление, откуда дует ветер: С - северный,
  • СВ - северо-восточный, В - восточный, ЮВ - юго-восточный, Ю - южный, ЮЗ - юго-западный, З - западный, СЗ - северо-западный.
  • Видимость - горизонтальная дальность видимости в метрах или километрах. При видимости от 1 до 10 км при отсутствии осадков обычно наблюдается дымка, при ухудшении видимости до 1 км и менее - туман. В сухую погоду видимость может ухудшаться дымом, пылью или мглою.
  • Явления - указаны атмосферные явления, наблюдавшиеся в срок или в последний час перед сроком; фигурными скобками обозначены явления, наблюдавшиеся между сроками (за 1-3 часа до срока); квадратными скобками обозначены град или гололедные отложения с указанием их диаметра в мм.
  • Облачность - указаны через наклонную черту общая и нижняя облачность в баллах и высота нижней границы облаков в метрах; квадратными скобками обозначены формы облаков: Ci - перистые, Cs - перисто-слоистые, Cc - перисто-кучевые, Ac - высококучевые, As - высокослоистые, Sc - слоисто-кучевые, Ns - слоисто-дождевые, Cu - кучевые, Cb - кучево-дождевые. Подробнее классификацию облаков см. в Атласе облаков (PDF).
  • T - Температура воздуха - температура, измеренная на высоте 2 м над землей.
  • Td - Температура точки росы - температура, при понижении до которой содержащийся в воздухе водяной пар достигнет насыщения.
  • f - Относительная влажность воздуха - влажноcть воздуха, измеренная на высоте 2 м над землей.
  • Te - Эффективная температура - температура, которую ощущает одетый по сезону человек в тени. Характеристика душности погоды. При расчете учитывается влияние влажности воздуха и скорости ветра на теплоощущения человека.
  • Tes - Эффективная температура на солнце - температура, которую ощущает человек, с поправкой на солнечный нагрев. Характеристика знойности погоды. Зависит от высоты солнца над горизонтом, облачности и скорости ветра. Ночью, в пасмурную погоду, а также при ветре 12 м/с и более поправка равна нулю.
  • P - Атмосферное давление - приведенное к уровню моря атмосферное давление.
  • Po - Атмосферное давление - измеренное на уровне метеостанции атмосферное давление.
  • Tmin - Минимальная температура - минимум температуры воздуха на высоте 2 м над землей.
  • Tmax - Максимальная температура - максимум температуры воздуха на высоте 2 м над землей.
  • R - Количество осадков - Количество выпавших осадков за период времени, мм. При наведении курсора мыши на число - период времени, за который выпало указанное количество осадков.
  • R24 - Количество осадков - Количество выпавших осадков за 24 часа, мм.
  • S - Снежный покров - Высота снежного покрова, см. При наведении курсора мыши на число - состояние снежного покрова и степень покрытия местности в баллах.